User: anonymous   Login
Location: Unspecified
(42.1900°N, 71.3291°W)
Time: 14:48:01
(UTC-05:00)
Language:

Resurs 1-4 Rocket - Orbit

View from above orbital plane
View from above orbital plane
View from above satellite
View from above satellite

Ground track
Ground track

The orbit data is extracted from the following two-line orbital elements,

1 25400U 98043G   17021.08481633  .00000004  00000-0  19398-4 0  9997
2 25400  98.4701 334.1526 0010097  12.8413 347.3023 14.25401614964113
Epoch (UTC): 21 January 2017 02:02:08
Eccentricity: 0.0010097
inclination: 98.4701°
perigee height: 800 km
apogee height: 814 km
right ascension of ascending node: 334.1526°
argument of perigee: 12.8413°
revolutions per day: 14.25401614
mean anomaly at epoch: 347.3023°
orbit number at epoch: 96411

The dashed part of the orbit path shows where the satellite is in the earth's shadow,  

DLR